Location: Newark
(48.5178°N, 4.2361°E)
Time: 21:39:06
(UTC+00:00)

Envisat - Pass Details

Date: 09 March 2021
Orbit: 764 x 766 km, 98.1° (Epoch: 16 April)

Event Time Altitude Azimuth Distance (km) Brightness Sun altitude
Rises 04:34:46 0° 22° (NNE) 3,244 6.7 -16.3°
Reaches altitude 10° 04:37:23 10° 34° (NE) 2,313 6.1 -15.9°
Maximum altitude 04:41:47 29° 94° (E) 1,388 5.1 -15.1°
Drops below altitude 10° 04:46:09 10° 153° (SSE) 2,296 5.7 -14.4°
Sets 04:48:44 0° 165° (SSE) 3,217 6.3 -14.0°
